Tracking 27188 objects as of 2-Apr-2023
HD Live streaming from Space Station
objects crossing your sky now

STARLINK-2301

Track STARLINK-2301 now!
10-day predictions
STARLINK-2301 is classified as:


NORAD ID: 48021
Int'l Code: 2021-024AW
Perigee: 553.4 km
Apogee: 555.4 km
Inclination: 53.1 °
Period: 95.6 minutes
Semi major axis: 6925 km
RCS: Unknown
Launch date: March 24, 2021
Source: United States (US)
Launch site: AIR FORCE EASTERN TEST RANGE (AFETR)
Your satellite tracking list
Your tracking list is empty




NASA's NSSDC Master Catalog

Two Line Element Set (TLE):
1 48021U 21024AW  23091.27973060  .00034066  00000-0  22954-2 0  9996
2 48021  53.0532  50.3387 0001436 103.2102 256.9048 15.06390754113160
Source of the keplerian elements: AFSPC